Date,TemperatureHighF,TemperatureAvgF,TemperatureLowF,DewpointHighF,DewpointAvgF,DewpointLowF,HumidityHigh,HumidityAvg,HumidityLow,PressureMaxIn,PressureMinIn,WindSpeedMaxMPH,WindSpeedAvgMPH,GustSpeedMaxMPH,PrecipitationSumIn
2013-2-16,54.0,45.8,40.1,34.5,29.0,-99.9,71,56,42,30.27,30.16,11,-25,11,0.00
2013-2-17,70.3,51.9,40.5,46.9,34.3,-99.9,68,54,30,30.16,29.89,32,-1,32,0.00
2013-2-18,79.2,62.1,50.4,60.3,47.9,34.9,80,61,35,30.07,29.68,37,13,37,0.00
2013-2-19,62.8,51.1,37.6,39.2,32.3,27.7,72,50,30,30.30,30.06,15,3,16,0.00
2013-2-20,51.8,44.7,40.6,42.1,37.6,35.4,88,77,54,30.18,29.80,20,6,20,0.17
2013-2-21,66.2,52.2,42.4,53.2,42.3,35.8,93,71,43,29.89,29.61,28,7,28,0.12
2013-2-22,49.6,41.0,34.2,38.5,30.1,-99.9,84,67,49,30.11,29.88,19,2,19,0.00
2013-2-23,55.8,42.4,30.4,35.2,30.0,24.8,82,63,41,30.07,29.90,14,3,15,0.00
2013-2-24,70.5,53.9,37.6,47.7,40.0,-99.9,87,62,36,29.92,29.60,20,2,22,0.00
2013-2-25,64.0,54.6,40.1,57.0,42.0,-99.9,87,65,36,29.60,29.39,29,5,32,0.13
2013-2-26,58.3,49.0,39.6,39.2,35.2,-99.9,79,61,45,29.88,29.72,23,0,24,0.01
2013-2-27,57.6,46.0,34.9,37.2,31.0,24.8,84,59,33,30.18,29.85,22,6,23,0.00
2013-2-28,58.8,45.3,33.8,35.1,29.6,25.7,82,56,32,30.25,30.11,24,5,24,0.00
2013-3-1,54.3,42.7,30.7,35.2,29.9,-99.9,83,63,45,30.27,30.16,20,-3,20,0.00
2013-3-2,53.6,40.8,28.9,28.0,25.3,22.3,81,56,34,30.40,30.24,23,5,23,0.00
2013-3-3,-200.0,0.0,200.0,-99.9,-99.9,-99.9,0,0,100,0.00,40.00,0,-999,0,0.00
2013-3-4,81.3,73.5,66.7,57.7,53.1,-99.9,71,50,39,29.70,29.55,32,7,32,0.00
2013-3-5,66.6,52.5,45.7,55.6,32.5,24.4,71,48,29,30.29,29.70,33,12,34,0.00
2013-3-6,62.8,46.9,33.3,38.3,28.1,23.4,72,50,26,30.43,30.17,10,3,17,0.00
2013-3-7,71.8,55.6,39.9,39.0,34.0,26.1,74,47,24,30.23,30.07,21,6,23,0.00
2013-3-8,66.2,59.7,52.5,56.1,50.2,37.8,79,71,49,30.17,29.97,16,6,20,0.00
2013-3-9,71.2,66.3,60.4,63.7,60.1,55.0,87,81,75,29.97,29.62,23,12,31,0.02
2013-3-10,66.0,52.8,41.2,61.7,42.9,32.4,92,70,54,30.05,29.66,22,9,27,0.76
2013-3-11,56.8,44.6,33.3,33.6,30.2,25.7,85,60,32,30.09,29.97,17,3,20,0.00
2013-3-12,68.2,51.9,34.3,39.4,33.5,27.9,82,53,29,30.26,30.01,14,2,14,0.00
2013-3-13,68.4,54.4,40.6,42.1,36.9,-99.9,79,54,31,30.42,30.26,13,-2,14,0.00
2013-3-14,52.7,48.4,46.6,40.5,37.1,35.4,69,65,59,30.32,30.27,7,2,9,0.00
2013-3-16,81.9,75.9,67.8,62.8,59.1,56.3,68,56,48,29.76,29.65,32,14,34,0.00
2013-3-17,77.4,68.4,57.9,63.7,59.1,51.8,86,73,56,29.74,29.61,28,9,29,0.00
2013-3-18,71.1,62.7,53.4,64.8,52.1,39.6,91,70,48,29.97,29.59,29,8,31,0.00
2013-3-19,69.3,57.7,45.1,46.4,41.2,37.2,82,56,39,30.09,29.92,20,5,21,0.00
2013-3-20,68.0,56.4,42.4,40.5,36.9,32.9,77,50,29,30.26,30.00,20,4,20,0.00
2013-3-21,68.5,58.9,49.8,56.5,42.8,34.2,75,55,44,30.00,29.56,29,9,29,0.01
2013-3-22,64.9,54.2,47.7,60.6,49.8,44.4,93,86,73,29.82,29.54,18,8,19,0.00
2013-3-23,56.7,50.2,46.6,52.3,47.9,45.0,95,92,84,29.87,29.63,19,4,22,0.07
2013-3-24,53.2,45.9,38.5,48.6,33.5,25.3,92,64,43,30.15,29.71,32,10,32,0.05
2013-3-25,54.7,42.3,29.1,28.9,23.6,20.1,76,50,28,30.37,30.14,24,6,29,0.00
2013-3-26,57.6,43.2,28.2,30.2,24.6,18.3,71,50,31,30.48,30.29,19,2,19,0.00
2013-3-27,71.4,54.3,37.0,41.4,34.0,25.9,65,48,28,30.31,30.08,28,8,28,0.00
2013-3-28,72.3,62.8,50.7,58.6,52.5,39.7,84,70,60,30.19,30.06,23,9,24,0.00
2013-3-29,76.6,67.8,60.3,61.5,58.6,55.9,87,73,58,30.15,30.00,25,10,26,0.00
2013-3-30,75.6,66.9,56.8,67.1,61.4,54.9,93,83,71,30.03,29.84,21,7,23,0.86
2013-3-31,67.5,64.4,58.6,64.2,61.0,55.6,93,89,82,29.92,29.76,32,8,37,0.52
2013-6-6,74.7,73.1,71.8,70.5,69.3,67.8,91,88,86,29.85,29.81,17,3,17,7.90
2013-6-7,84.4,78.3,67.3,64.2,61.9,58.3,81,59,45,29.94,29.83,17,3,17,0.02
2013-6-8,88.0,75.4,60.3,68.5,64.0,57.7,94,70,47,29.89,29.75,19,3,19,0.00
2013-6-9,87.4,77.8,69.6,75.2,70.2,65.7,94,79,60,29.89,29.79,20,3,20,0.43
2013-6-10,95.5,80.8,70.3,76.6,72.1,68.0,94,78,46,29.90,29.85,17,4,17,0.00